Location: Altenst�hlen
(53.5567°N, 8.9425°E)
Time: 13:17:09
(UTC+00:00)

STARLINK-61 - Pass Details

Date: 23 October 2019
Orbit: 530 x 533 km, 53.0° (Epoch: 17 November)

Event Time Altitude Azimuth Distance (km) Brightness Sun altitude
Rises 17:39:37 0° 278° (W) 2,679 9.0 -13.8°
Reaches altitude 10° 17:41:50 10° 277° (W) 1,788 7.6 -14.1°
Maximum altitude 17:45:53 73° 192° (SSW) 563 3.6 -14.7°
Enters shadow 17:48:04 26° 113° (ESE) 1,077 4.6 -15.1°
